Cloud_Cover
1 56 100 88 100 100 97 24 52 100 100 50 100 100 100 97 61 15 87 48 1 0 2 16 10 0 0 0 0 0 0 43 100 100 100 100 100 100 100 100 100 100 100 100
99 100 100 100 75 99 100 23 5 53 100 34 19 100 100 100 100 87 100 97 6 87 52 0 0 5 60 74 26 0 12 75 100 100 100 100 100 100 100 100 100 100 100 100
73 100 100 87 100 100 100 68 94 92 100 100 94 55 100 100 100 100 60 96 100 86 100 21 9 50 78 100 93 56 57 100 100 100 100 100 100 100 100 100 100 100 100 100
100 100 97 60 100 100 100 100 100 100 100 100 100 72 100 100 100 100 60 62 90 100 100 46 62 100 100 100 100 100 100 100 100 100 100 100 100 100 100 100 100 100 100 100
100 100 52 100 100 100 100 100 100 100 100 100 84 81 100 100 100 100 63 26 27 5 79 99 94 100 100 100 100 100 100 100 100 100 100 100 100 100 100 100 100 100 100 100
100 100 60 100 100 100 100 100 100 100 72 100 89 100 87 100 100 100 58 24 34 45 86 100 100 100 100 100 100 100 100 100 100 100 100 100 100 100 100 100 100 100 100 100
100 100 88 100 100 100 92 100 100 100 69 100 100 100 100 87 100 100 100 100 100 67 100 100 100 100 100 100 100 100 100 100 100 100 100 100 100 100 100 100 100 100 100 100
100 94 79 100 100 100 95 100 100 100 100 100 100 85 100 92 100 100 100 100 100 100 100 100 100 98 100 100 100 100 100 100 100 100 100 100 100 100 100 100 100 100 100 100
100 96 100 100 100 100 100 100 100 100 100 100 100 100 100 81 100 100 100 100 100 100 100 100 100 100 100 97 94 98 100 100 100 100 100 100 100 100 100 100 100 100 100 100
98 99 100 100 100 100 100 100 100 100 100 100 100 100 100 100 100 100 100 100 100 100 100 100 100 100 99 93 64 100 100 100 100 100 100 94 94 89 96 98 100 100 100 100
100 100 100 100 100 100 100 100 100 100 100 100 100 96 96 100 100 100 100 100 100 100 100 100 100 100 100 69 59 57 35 88 100 100 100 99 100 100 100 100 100 100 100 100
7 94 77 72 100 100 100 100 100 100 100 100 100 100 100 100 97 99 100 100 100 100 100 100 100 100 100 100 100 100 99 100 100 100 100 100 100 100 100 100 100 100 100 100
53 95 79 84 100 100 100 100 100 100 100 100 100 100 100 100 100 100 100 100 100 100 100 100 100 100 100 100 100 100 100 100 100 100 100 100 100 100 100 100 100 100 100 100
100 91 42 86 99 100 100 100 100 100 100 100 100 100 100 100 100 100 100 100 100 100 100 100 100 100 100 100 100 100 100 100 100 100 100 100 100 100 100 100 100 100 100 100
91 98 58 38 91 100 100 100 100 100 100 100 100 100 100 100 100 100 100 100 100 100 100 100 97 100 100 100 100 100 100 100 100 100 100 100 100 100 100 100 100 100 100 100
89 100 80 92 86 100 100 100 100 100 100 100 100 100 100 100 100 100 100 100 100 100 100 100 100 100 100 100 100 100 100 100 100 100 100 100 100 100 100 100 100 100 100 100
100 100 100 78 99 88 100 100 100 100 100 100 100 100 100 100 100 100 100 100 100 100 100 100 100 100 100 100 100 100 100 100 100 100 100 97 89 89 89 82 90 100 98 90
100 100 100 99 89 90 90 100 100 100 100 100 100 100 100 100 100 100 100 100 100 100 100 100 100 100 100 100 100 100 100 100 100 100 89 92 91 83 80 87 89 86 83 89
100 100 100 100 100 100 100 100 100 100 100 100 100 100 100 100 100 100 100 100 100 100 100 100 100 100 100 100 100 100 100 100 90 91 90 100 100 99 100 100 100 95 97 89
100 100 100 100 100 100 100 100 100 100 100 100 100 100 100 100 100 100 100 100 100 100 100 100 100 100 100 100 100 100 100 100 96 100 89 88 88 100 100 100 100 100 100 100
100 100 100 100 100 100 100 100 100 100 100 100 100 100 100 100 100 100 100 100 100 100 100 100 100 100 100 100 100 100 100 100 98 77 73 100 99 93 95 100 100 100 95 82
100 100 100 100 100 100 100 100 100 100 100 100 100 100 100 100 100 100 100 100 100 100 100 100 100 100 100 100 100 100 100 99 78 99 70 70 82 100 95 95 100 100 100 100
100 100 100 100 100 100 100 100 100 100 100 100 100 100 100 100 100 100 100 100 100 100 100 100 100 100 100 100 100 100 98 94 81 79 82 97 100 100 100 100 100 98 94 78
100 100 100 100 100 100 100 100 100 100 100 100 100 100 100 100 100 100 100 100 100 100 100 100 100 100 100 100 100 100 100 100 100 100 68 94 100 100 100 100 100 100 91 98
100 100 100 100 100 100 100 100 100 100 100 100 100 100 100 100 100 100 100 100 100 100 100 100 100 100 100 100 100 100 100 100 100 99 100 100 100 100 100 97 92 69 82 100
100 100 100 100 100 100 100 100 100 100 100 100 100 100 100 100 100 100 100 100 100 100 100 100 100 96 59 72 100 100 96 74 44 33 98 100 100 100 100 84 97 99 100 100
100 100 100 100 100 100 100 100 100 100 100 100 100 100 100 100 95 99 100 100 100 76 70 38 38 88 100 100 100 95 70 58 73 88 100 100 100 100 100 100 100 100 90 92